Regional Weather Roundup
Issued by NWS Cleveland, OH

Home | Current Version | Previous Version | Graphics & Text | Print | Product List | Glossary On
Versions: 1 2 3 4 5 6 7 8 9 10 11 12 13 14 15 16 17 18 19 20 21 22 23 24 25 26 27 28 29 30 31 32 33 34 35 36 37 38 39 40 41 42 43 44 45 46 47 48 49 50
000
ASUS41 KCLE 280210
RWRCLE
OHIO REGIONAL WEATHER ROUNDUP
NATIONAL WEATHER SERVICE CLEVELAND, OH
900 PM EST THU NOV 27 2014

NOTE: "FAIR" INDICATES FEW OR NO CLOUDS BELOW 12,000 FEET WITH NO
SIGNIFICANT WEATHER AND/OR OBSTRUCTIONS TO VISIBILITY.

OHZ001>008-015>018-024>027-034-035-043-044-280300-
   NORTHWEST OHIO

CITY           SKY/WX    TMP DP  RH WIND       PRES   REMARKS
DEFIANCE       CLOUDY    28  21  75 NW9       30.33R WCI  19
FINDLAY        CLOUDY    30  23  75 W16       30.28S WCI  19
TOLEDO EXPRESS CLOUDY    28  22  78 NW6       30.29R WCI  22
TOLEDO EXEC    CLOUDY    29  23  78 NW9       30.29S WCI  20
LIMA           CLOUDY    29  22  75 W16       30.31R WCI  17
$$

OHZ009>014-019>023-028>033-038-089-280300-
   NORTHEAST OHIO

CITY           SKY/WX    TMP DP  RH WIND       PRES   REMARKS
CLE-HOPKINS    HVY SNOW  29  27  92 NW10      30.25R VSB 1/4 WCI  20
CLE-LAKEFRONT  CLOUDY    34  22  61 NW20G28   30.21S WCI  23
CUY CO. ARPT   MOCLDY    34  27  75 N14       30.20R WCI  24
LORAIN-ELYRIA  LGT SNOW  28  26  92 N12       30.24R FOG     WCI  18
ASHTABULA      FLURRIES  31  23  72 NW12G20   30.18R WCI  22
AKRON-CANTON   LGT SNOW  28  25  86 W7        30.20S FOG     WCI  21
WOOSTER        CLOUDY    29  25  85 W16G24    30.22S WCI  17
MANSFIELD      CLOUDY    28  25  88 W9G18     30.23S WCI  19
YOUNGSTOWN     LGT SNOW  28  27  96 W8        30.17R VSB 3/4 WCI  20
$$

OHZ042-051>053-060>062-070>072-077>081-280300-
  SOUTHWEST OHIO

CITY           SKY/WX    TMP DP  RH WIND       PRES   REMARKS
CINC-COVINGTON CLOUDY    29  18  63 NW10      30.38R WCI  20
CINC-LUNKEN    CLOUDY    30  19  63 W10       30.41S WCI  21
HAMILTON       CLOUDY    29  19  66 W9        30.40S WCI  20
DAYTON         FLURRIES  28  22  78 W12       30.35R WCI  18
WRIGHT-PAT AFB FLURRIES  29  21  74 W14G20    30.35R WCI  18
DAYTON GENERAL CLOUDY    28  20  71 W9        30.35R WCI  19
WILMINGTON     CLOUDY    27  18  69 W16       30.35R WCI  15
$$

OHZ036-037-039>041-045>050-054>059-063>069-073>076-082>088-280300-
  CENTRAL AND SOUTHEAST OHIO

CITY           SKY/WX    TMP DP  RH WIND       PRES   REMARKS
COLUMBUS       CLOUDY    30  21  69 W13       30.31R WCI  20
OSU AIRPORT    CLOUDY    29  21  72 W16       30.30R WCI  17
BOLTON FIELD   NOT AVBL
RICKENBACK AFB CLOUDY    30  21  69 W16G22    30.32R WCI  18
NEWARK         CLOUDY    31  21  66 NW15      30.29R WCI  20
MARION         LGT SNOW  29  24  82 W12       30.28S WCI  19
LANCASTER      CLOUDY    30  21  69 W7G20     30.31R WCI  23
ZANESVILLE     FLURRIES  30  25  81 W8        30.28R WCI  22
NEW PHILLY     CLOUDY    31  25  78 W6        30.25S WCI  25
$$



USA.gov is the U.S. government's official web portal to all federal, state and local government web resources and services.